Location: *
(48.8667°N, 2.3331°E)
Time: 07:36:51
(UTC+00:00)

Cosmos 2061 Rocket - Pass Details

Date: 09 April 2020
Orbit: 967 x 1012 km, 82.9° (Epoch: 02 June)

Event Time Altitude Azimuth Distance (km) Brightness Sun altitude
Rises 23:22:59 0° 351° (N) 3,687 8.1 -32.7°
Reaches altitude 10° 23:25:30 10° 352° (N) 2,740 7.2 -32.8°
Enters shadow 23:30:54 66° 13° (NNE) 1,070 4.2 -32.9°
